Weather History for PAVD - October, 2013

Change the Weather History Date:

Tuesday, October 8, 2013

  Actual Average Record
Temperature  
Mean Temperature 38 °F -  
Max Temperature 39 °F 46 °F 57 °F (1990)
Min Temperature 37 °F 35 °F 28 °F (2008)
Degree Days  
Heating Degree Days 27    
Moisture  
Dew Point 35 °F    
Average Humidity 90    
Maximum Humidity 100    
Minimum Humidity 81    
Precipitation  
Precipitation 2.16 in - - ()
Sea Level Pressure  
Sea Level Pressure 29.46 in    
Wind  
Wind Speed 1 mph (East)    
Max Wind Speed 7 mph    
Max Gust Speed -    
Visibility 5 miles    
Events Rain    
Averages and records for this station are not official NWS values.
T = Trace of Precipitation, MM = Missing Value Source: NWS Daily Summary

Daily Weather History Graph

Daily Weather History Graph

Search for Another Location

Airport or City:

Trip Planner

Search our weather history database for the weather conditions in past years. The results will help you decide how hot, cold, wet, or windy it might be!

Date:

Astronomy

Oct. 08, 2013 Rise Set
Actual Time 8:10 AM AKDT 6:53 PM AKDT
Civil Twilight 7:27 AM AKDT 7:36 PM AKDT
Nautical Twilight 6:37 AM AKDT 8:26 PM AKDT
Astronomical Twilight 5:45 AM AKDT 9:17 PM AKDT
Moon 1:23 PM AKDT (10/8) 8:28 PM AKDT (10/8)
Length of Visible Light 12h 09m
Length of Day
10h 43m
Waxing Crescent, 17% of the Moon is Illuminated
Oct 8
Waxing Crescent
Oct 11
First Quarter
Oct 18
Full
Oct 26
Last Quarter
Nov 3
New

Hourly Weather History & Observations

Time (AKDT) Temp. Windchill Dew Point Humidity Pressure Visibility Wind Dir Wind Speed Gust Speed Precip Events Conditions
12:16 AM 37.4 °F 34.9 °F 33.8 °F 87% 29.90 in 10.0 mi ENE 3.5 mph - N/A   Overcast
12:36 AM 37.4 °F - 33.8 °F 87% 29.90 in 10.0 mi Calm Calm - N/A   Overcast
12:56 AM 37.4 °F - 33.8 °F 87% 29.89 in 10.0 mi Calm Calm - N/A   Overcast
1:16 AM 39.2 °F - 35.6 °F 87% 29.89 in 10.0 mi Calm Calm - N/A   Overcast
1:36 AM 37.4 °F 34.9 °F 33.8 °F 87% 29.88 in 10.0 mi East 3.5 mph - N/A   Overcast
1:56 AM 39.2 °F - 35.6 °F 87% 29.88 in 10.0 mi Calm Calm - N/A   Overcast
2:16 AM 37.4 °F - 33.8 °F 87% 29.88 in 10.0 mi Calm Calm - N/A   Overcast
2:36 AM 39.2 °F - 33.8 °F 81% 29.87 in 10.0 mi Calm Calm - N/A   Overcast
2:56 AM 39.2 °F - 35.6 °F 87% 29.86 in 10.0 mi Calm Calm - N/A   Overcast
3:16 AM 39.2 °F - 35.6 °F 87% 29.85 in 10.0 mi Calm Calm - N/A   Overcast
3:36 AM 39.2 °F - 35.6 °F 87% 29.85 in 10.0 mi Calm Calm - N/A   Overcast
3:56 AM 39.2 °F - 35.6 °F 87% 29.85 in 10.0 mi Calm Calm - N/A   Overcast
4:16 AM 39.2 °F - 35.6 °F 87% 29.83 in 10.0 mi Calm Calm - N/A   Overcast
4:36 AM 39.2 °F - 35.6 °F 87% 29.82 in 9.0 mi Calm Calm - 0.01 in   Overcast
4:56 AM 39.2 °F - 35.6 °F 87% 29.82 in 10.0 mi Calm Calm - 0.02 in   Overcast
5:16 AM 39.2 °F - 35.6 °F 87% 29.81 in 9.0 mi Calm Calm - 0.01 in   Overcast
5:36 AM 39.2 °F - 37.4 °F 93% 29.80 in 7.0 mi Calm Calm - 0.03 in   Overcast
5:56 AM 39.2 °F - 35.6 °F 87% 29.78 in 7.0 mi Calm Calm - 0.06 in   Overcast
6:16 AM 39.2 °F - 37.4 °F 93% 29.77 in 5.0 mi Calm Calm - 0.02 in   Overcast
6:36 AM 39.2 °F - 37.4 °F 93% 29.75 in 5.0 mi Calm Calm - 0.05 in   Overcast
6:56 AM 39.2 °F - 37.4 °F 93% 29.74 in 6.0 mi Calm Calm - 0.07 in   Overcast
7:16 AM 39.2 °F - 35.6 °F 87% 29.73 in 6.0 mi Calm Calm - 0.02 in   Overcast
7:36 AM 39.2 °F - 35.6 °F 87% 29.72 in 6.0 mi Calm Calm - 0.04 in   Overcast
7:56 AM 39.2 °F - 35.6 °F 87% 29.69 in 5.0 mi Calm Calm - 0.07 in   Overcast
8:16 AM 37.4 °F - 33.8 °F 87% 29.68 in 5.0 mi Calm Calm - 0.03 in   Overcast
8:36 AM 37.4 °F - 33.8 °F 87% 29.67 in 5.0 mi Calm Calm - 0.06 in   Overcast
8:56 AM 39.2 °F - 33.8 °F 81% 29.66 in 4.0 mi Calm Calm - 0.08 in   Overcast
9:16 AM 37.4 °F - 35.6 °F 93% 29.66 in 4.0 mi Calm Calm - 0.03 in   Overcast
9:36 AM 39.2 °F 37.0 °F 35.6 °F 87% 29.64 in 4.0 mi East 3.5 mph - 0.06 in   Overcast
9:56 AM 37.4 °F - 35.6 °F 93% 29.62 in 5.0 mi Calm Calm - 0.09 in   Overcast
10:16 AM 37.4 °F - 35.6 °F 93% 29.60 in 5.0 mi Calm Calm - 0.02 in   Overcast
10:36 AM 37.4 °F - 35.6 °F 93% 29.58 in 5.0 mi Calm Calm - 0.04 in   Overcast
10:56 AM 37.4 °F - 33.8 °F 87% 29.56 in 4.0 mi Calm Calm - 0.07 in   Overcast
11:16 AM 37.4 °F - 35.6 °F 93% 29.53 in 4.0 mi Calm Calm - 0.04 in   Overcast
11:36 AM 37.4 °F - 33.8 °F 87% 29.50 in 4.0 mi Calm Calm - 0.07 in   Overcast
11:56 AM 37.4 °F - 35.6 °F 93% 29.48 in 4.0 mi Calm Calm - 0.08 in   Overcast
12:16 PM 37.4 °F 34.9 °F 35.6 °F 93% 29.46 in 4.0 mi West 3.5 mph - 0.02 in   Overcast
12:36 PM 37.4 °F - 33.8 °F 87% 29.43 in 4.0 mi Calm Calm - 0.04 in   Overcast
12:56 PM 37.4 °F - 35.6 °F 93% 29.42 in 1.0 mi Calm Calm - 0.06 in   Overcast
1:16 PM 37.4 °F - 35.6 °F 93% 29.40 in 1.0 mi Calm Calm - 0.02 in   Overcast
1:36 PM 37.4 °F - 35.6 °F 93% 29.39 in 1.0 mi Calm Calm - 0.04 in   Overcast
1:56 PM 37.4 °F - 35.6 °F 93% 29.38 in 1.0 mi Calm Calm - 0.08 in   Overcast
2:16 PM 37.4 °F - 35.6 °F 93% 29.36 in 1.0 mi Calm Calm - 0.03 in   Overcast
2:36 PM 37.4 °F - 35.6 °F 93% 29.33 in 1.0 mi Calm Calm - 0.07 in   Overcast
2:56 PM 37.4 °F - 35.6 °F 93% 29.31 in 1.0 mi Calm Calm - 0.12 in   Overcast
3:16 PM 37.4 °F - 33.8 °F 87% 29.29 in 1.0 mi Calm Calm - 0.04 in   Overcast
3:36 PM 37.4 °F - 35.6 °F 93% 29.27 in 1.0 mi Calm Calm - 0.09 in   Overcast
3:56 PM 37.4 °F - 33.8 °F 87% 29.26 in 1.5 mi Calm Calm - 0.14 in   Overcast
4:16 PM 37.4 °F - 35.6 °F 93% 29.25 in 1.5 mi Calm Calm - 0.05 in   Overcast
4:36 PM 37.4 °F - 35.6 °F 93% 29.23 in 1.5 mi Calm Calm - 0.11 in   Overcast
4:56 PM 37.4 °F 34.9 °F 35.6 °F 93% 29.22 in 1.0 mi East 3.5 mph - 0.17 in   Overcast
5:16 PM 37.4 °F 34.9 °F 35.6 °F 93% 29.20 in 1.0 mi ESE 3.5 mph - 0.07 in   Overcast
5:36 PM 39.2 °F - 35.6 °F 87% 29.19 in 1.0 mi Calm Calm - 0.12 in   Overcast
5:56 PM 37.4 °F - 35.6 °F 93% 29.18 in 1.5 mi Calm Calm - 0.16 in   Overcast
6:08 PM 37.4 °F - 35.6 °F 93% 29.16 in 4.0 mi Calm Calm - N/A Rain Rain
6:16 PM 39.2 °F - 35.6 °F 87% 29.16 in 4.0 mi Calm Calm - 0.05 in   Overcast
6:36 PM 37.4 °F - 35.6 °F 93% 29.14 in 4.0 mi Calm Calm - 0.12 in   Overcast
6:56 PM 37.4 °F - 37.4 °F 100% 29.13 in 4.0 mi Calm Calm - 0.19 in   Overcast
7:16 PM 37.4 °F - 37.4 °F 100% 29.12 in 4.0 mi Calm Calm - 0.06 in   Overcast
7:36 PM 37.4 °F - 35.6 °F 93% 29.12 in 4.0 mi Calm Calm - 0.14 in   Overcast
7:56 PM 37.4 °F 32.8 °F 35.6 °F 93% 29.11 in 1.5 mi East 5.8 mph - 0.22 in   Overcast
8:16 PM 37.4 °F 32.8 °F 35.6 °F 93% 29.09 in 1.5 mi ESE 5.8 mph - 0.05 in   Overcast
8:36 PM 37.4 °F 34.9 °F 37.4 °F 100% 29.08 in 1.5 mi East 3.5 mph - 0.12 in   Overcast
8:56 PM 37.4 °F 32.1 °F 35.6 °F 93% 29.05 in 7.0 mi ESE 6.9 mph - 0.18 in   Overcast
9:16 PM 37.4 °F 34.9 °F 35.6 °F 93% 29.03 in 7.0 mi East 3.5 mph - 0.01 in   Overcast
9:36 PM 37.4 °F - 33.8 °F 87% 29.02 in 7.0 mi Calm Calm - 0.03 in   Overcast
9:56 PM 39.2 °F 37.0 °F 35.6 °F 87% 29.01 in 7.0 mi North 3.5 mph - 0.10 in   Overcast
10:16 PM 39.2 °F - 33.8 °F 81% 28.99 in 10.0 mi Calm Calm - 0.04 in   Overcast
10:36 PM 39.2 °F - 35.6 °F 87% 28.99 in 6.0 mi Calm Calm - 0.09 in   Overcast
10:56 PM 37.4 °F 32.8 °F 35.6 °F 93% 28.98 in 10.0 mi East 5.8 mph - 0.12 in   Overcast
11:16 PM 37.4 °F - 35.6 °F 93% 28.98 in 8.0 mi Calm Calm - 0.04 in   Overcast
11:36 PM 39.2 °F 35.9 °F 35.6 °F 87% 28.97 in 8.0 mi NNW 4.6 mph - 0.07 in   Overcast
11:56 PM 39.2 °F - 35.6 °F 87% 28.97 in 10.0 mi Calm Calm - 0.08 in   Overcast